Regional Weather Roundup
Issued by NWS Austin/San Antonio, TX

Home | Current Version | Previous Version | Text Only | Print | Product List | Glossary On
Versions: 1 2 3 4 5 6 7 8 9 10 11 12 13 14 15 16 17 18 19 20 21 22 23 24 25 26 27 28 29 30 31 32 33 34 35 36 37 38 39 40 41 42 43 44 45 46 47 48 49 50
000
ASUS44 KEWX 240410
RWREWX
SOUTH TEXAS REGIONAL WEATHER ROUNDUP
NATIONAL WEATHER SERVICE AUSTIN/SAN ANTONIO TX
1000 PM CST SUN FEB 23 2020

NOTE: "FAIR" INDICATED FEW OR NO CLOUDS BELOW 12,000 FEET WITH NO
SIGNIFICANT WEATHER AND/OR OBSTRUCTIONS TO VISIBILITY.

* - THESE STATIONS ARE NOT NWS OR FAA STATIONS...AND ARE NOT SUBJECT
    TO NWS AND FAA QUALITY CONTROL.

TXZ171-172-183>190-240500-
TEXAS HILL COUNTRY AND EDWARDS PLATEAU

CITY           SKY/WX    TMP DP  RH WIND       PRES   REMARKS
JUNCTION       CLEAR     55  53  93 CALM      29.94R
*LLANO         CLEAR     55  54  94 CALM      29.95S
BURNET         MOCLDY    59  56  89 SW3       29.92R
*HORSESHOE BAY PTCLDY    61  57  88 SW5       29.91R
*LAGO VISTA    CLOUDY    62  59  90 S6        29.91S
*KERRVILLE     PTCLDY    56  53  89 CALM      29.94R
*FREDERICKSBRG MOCLDY    57  53  86 CALM      29.93S
*ROCKSPRINGS     N/A     55  54  94 N3        29.99F
*BOERNE        CLOUDY    61  61 100 S6        29.92R
*CASTROVILLE   MOCLDY    68  61  77 SE7       29.92R
HONDO          CLEAR     63  57  81 SE7       29.90R
*UVALDE        CLEAR     62  56  82 E7        29.90R
DEL RIO        CLEAR     68  55  63 NE5       29.89R
*LAUGHLIN AFB  CLOUDY    65  55  70 NE8       29.89R
*SPOFFORD      NOT AVBL
*EAGLE PASS    CLEAR     64  54  68 NE3       29.87R
CARRIZO SPRGS  CLEAR     66  55  68 E6        29.85S
*FAITH RANCH   CLEAR     68  55  64 E6        29.85F
$$

TXZ173-191>194-202-209-217>225-228-240500-
CENTRAL AND SOUTH CENTRAL TEXAS

CITY           SKY/WX    TMP DP  RH WIND       PRES   REMARKS
GEORGETOWN     CLOUDY    63  59  87 S7        29.92R
*TAYLOR        CLOUDY    63  60  89 S13       29.89S
AUSTIN/BERGSTM CLOUDY    66  60  81 S10G21    29.89S
AUSTIN/MABRY   CLOUDY    67  59  75 S7        29.90R
*PFLUGERVILLE  CLOUDY    64  59  82 S7        29.90S
SAN MARCOS     CLOUDY    66  62  87 S12       29.91S
NEW BRAUNFELS  CLOUDY    67  61  81 S12       29.90R
*RANDOLPH AFB  CLOUDY    66  62  88 S10       29.91R
*SEGUIN        CLOUDY    65  62  89 S13       29.94S
SAN ANTONIO    CLOUDY    67  60  78 SE10      29.92R
STINSON FIELD  CLOUDY    65  61  87 SE8       29.90R
*KELLY FIELD   CLOUDY    67  60  79 SE9       29.89R
*PLEASANTON    PTCLDY    66  61  84 SE10G17   29.90F
*KENEDY        CLOUDY    68  64  86 SE14      29.92S
*LA GRANGE     CLOUDY    66  63  89 S13       29.90S
*GIDDINGS      CLOUDY    65  60  84 S12       29.91S
*GONZALES      CLOUDY    67  64  91 SE9       29.90F
$$

TXZ163>164-176>182-195>201-210>213-226-227-235-240500-
SOUTHEAST TEXAS

CITY           SKY/WX    TMP DP  RH WIND       PRES   REMARKS
COLLEGE STN    CLOUDY    66  59  78 SE16      29.92S
*BRYAN         CLOUDY    64  62  93 SE10      29.93R
*CALDWELL      CLOUDY    64  61  91 S20       29.91S
*CROCKETT      NOT AVBL
*BRENHAM       CLOUDY    66  61  84 S9        29.93R
HUNTSVILLE     CLOUDY    62  57  83 SE9G23    29.92F
CONROE         CLOUDY    61  58  90 SE15      29.97F
HOUSTON BUSH   CLOUDY    63  59  87 SE14      29.96F
HOUSTON HOBBY  CLOUDY    63  60  90 SE9       29.96F
*HOUSTON SW AP CLOUDY    61  61 100 SE6       29.97F
PEARLAND       CLOUDY    65  60  84 SE10      29.98F
HOUSTON HOOKS  CLOUDY    62  57  83 SE8       29.96F
ELLINGTON FLD  CLOUDY    63  61  94 E6        29.98S
SUGAR LAND     CLOUDY    64  62  93 SE12      29.96F
*HOUSTON EXEC  CLOUDY    64  63  94 SE10      29.96F
*CLEVELAND MUN CLOUDY    60  58  92 S7        29.98F
*WHARTON       CLOUDY    65  59  81 SE8       29.96F
*COLUMBUS      CLOUDY    62  57  83 SE9       29.94F
*EAGLE LAKE    CLOUDY    66  63  90 S8        29.94
$$

TXZ214>216-236>238-240500-
THE UPPER TEXAS COAST

CITY           SKY/WX    TMP DP  RH WIND       PRES   REMARKS
*ORANGE        CLOUDY    63  59  86 SE5       30.03F
PORT ARTHUR    LGT RAIN  63  60  90 SE9       30.01R
GALVESTON      CLOUDY    65  62  90 E8        30.01R
ANGLETON       LGT RAIN  66  62  87 SE12      29.98S
*BAY CITY      CLOUDY    69  65  86 SE9       29.97F
PALACIOS       CLOUDY    67  62  84 SE17      29.94F
$$

TXZ229>234-239>247-240500-
TEXAS COASTAL BEND AND RIO GRANDE PLAINS

CITY           SKY/WX    TMP DP  RH WIND       PRES   REMARKS
VICTORIA       CLOUDY    67  62  84 SE10      29.94S
*BEEVILLE      CLOUDY    68  67  94 SE10      29.91S
ROCKPORT       CLOUDY    68  62  81 SE12      29.92F
*PORT ARANSAS  CLOUDY    65  63  92 SE10      29.94F
*PORT LAVACA   CLOUDY    67  64  90 SE8       29.94F
*INGLESIDE     MOCLDY    69  66  91 S13G18    29.92S
CORPUS CHRISTI MOCLDY    69  64  84 SE20      29.91F
CORPUS NAS     CLOUDY    68  66  93 SE13      29.91F
*ROBSTOWN      MOCLDY    68  64  87 SE15      29.90F
ALICE          MOCLDY    67  64  90 SE12      29.89F
KINGSVILLE NAS CLOUDY    69  65  86 SE12      29.90S
COTULLA        CLEAR     68  64  87 E13       29.88R
LAREDO         CLEAR     70  61  73 SE9       29.85S
$$

TXZ248>255-240500-
DEEP SOUTH TEXAS

CITY           SKY/WX    TMP DP  RH WIND       PRES   REMARKS
BROWNSVILLE    CLOUDY    70  66  87 S12       29.93R
PORT ISABEL    CLOUDY    70  66  87 S12       29.92R
HARLINGEN      CLOUDY    71  67  87 S18       29.91F
*HEBBRONVILLE  CLEAR     67  60  77 S10G17    29.88F
MCALLEN        PTCLDY    70  65  84 SE15G21   29.91F
*WESLACO       CLOUDY    68  64  88 S13       29.90
FALFURRIAS     MOCLDY    70  63  78 SE7       29.89F
EDINBURG       FAIR      68  64  85 SE13      29.90S
*ZAPATA        FAIR      73  62  67 SE13G20   29.85F
$$

TXZ213>215-236>238-242>244-246-247-251-254-255-240500-
CMAN STATIONS

STATION/POSITION TIME  TEMP    WIND        PRES    WAVE
                       AIR SEA DIR/SP/G            HT/PER
                 (UTC) (F)     (DEG/KT/KT) (MB)    (FT/S)
SABINE PASS      0330   62 60  110/ 11/ 14 1017.8
NORTH JETTY/GLS  0330   63 59  120/ 11/ 13 1014.7
EAGLE POINT      0330   60 57  130/  7/  8 1015.1
MORGANS POINT    0330   60 59  140/  5/  8 1015.5
PORT O`CONNOR    0324   64 64  120/ 11/ 12 1013.7
PORT ARANSAS     0400   64 61  120/ 12/ 13 1012.8
MALAQUITE BEACH  0324   65 63  120/ 13/ 14 1012.6
BAFFIN BAY       0324   65 65  110/ 12/ 15 1013.3
PORT ISABEL      0324   68 63  150/ 10/ 12 1013.9
$$




USA.gov is the U.S. government's official web portal to all federal, state and local government web resources and services.